Regional Weather Roundup
Issued by NWS

Home | Current Version | Previous Version | Text Only | Print | Product List | Glossary On
Versions: 1 2 3 4 5 6 7 8 9 10 11 12 13 14 15 16 17 18 19 20 21 22 23 24 25 26 27 28
000
ASUS44 KJAN 290920
RWRMS

MISSISSIPPI HOURLY WEATHER ROUNDUP
NATIONAL WEATHER SERVICE JACKSON MS
400 AM CDT MON AUG 29 2016

NOTE: "FAIR: INDICATES FEW OR NO CLOUDS BELOW 12,000 FEET WITH NO
SIGNIFICANT WEATHER AND/OR OBSTRUCTIONS TO VISIBILITY.

MSZ001>002-007>008-010>013-018>021-025>028-034>036-291000-
NORTHWEST MISSISSIPPI

CITY           SKY/WX    TMP DP  RH WIND       PRES   REMARKS
CLARKSDALE     CLEAR     77  77 100 CALM      30.04S
GREENWOOD      PTCLDY    74  70  87 CALM      30.02S
GREENVILLE     PTCLDY    76  72  87 CALM      30.02S
OXFORD         FAIR      73  70  88 NE5       30.07S
TUNICA         PTSUNNY   73  72  94 NE5       30.05S
$$

MSZ003>006-009-014>017-022>024-029>033-037>039-291000-
NORTHEAST MISSISSIPPI

CITY           SKY/WX    TMP DP  RH WIND       PRES   REMARKS
COLUMBUS AFB   CLEAR     75  72  89 NE2       30.02F
CORINTH        FAIR      73  72  94 CALM      30.06F
GOLDN TRIANGLE CLEAR     75  66  73 NE3       30.03S
TUPELO         PTCLDY    75  70  84 N8        30.05S
$$

MSZ040-058-291000-
CENTRAL MISSISSIPPI

CITY           SKY/WX    TMP DP  RH WIND       PRES   REMARKS
JACKSON INTL   CLEAR     74  71  91 CALM      30.01S
JACKSON HAWKNS PTCLDY    77  70  79 NE3       30.02R
MERIDIAN KEY   CLEAR     75  70  84 CALM      30.01S
MERIDIAN NAS   CLEAR     74  68  81 NW3       30.02S
$$

MSZ059>079-291000-
SOUTH MISSISSIPPI

CITY           SKY/WX    TMP DP  RH WIND       PRES   REMARKS
BROOKHAVEN     FAIR     N/A N/A N/A NE3       30.01S
HATTIESBURG    CLEAR     75  73  93 CALM      29.99S
MCCOMB         PTCLDY    76  73  91 CALM      29.98F
NATCHEZ        NOT AVBL
PINE BELT      CLEAR     73  70  88 NE3       30.00F
$$

MSZ080>082-291000-
COASTAL MISSISSIPPI

CITY           SKY/WX    TMP DP  RH WIND       PRES   REMARKS
BILOXI         CLOUDY    76  76 100 NE7       29.95F
PASCAGOULA     CLEAR     74  74 100 NE3       29.96F
GULFPORT       CLOUDY    75  74  96 NE5       29.95F
$$

LAZ007>009-015>016-023>026-291000-
NORTHEAST LOUISIANA

CITY           SKY/WX    TMP DP  RH WIND       PRES   REMARKS
BASTROP        FAIR      74  73  98 CALM      30.02S
TALLULAH/VBURG MOCLDY    77  74  90 CALM      30.00S
$$




USA.gov is the U.S. government's official web portal to all federal, state and local government web resources and services.